1st Responders/1st Detectors/Storm Spotters Weather Summary for Harrison County, KY

Forecast Maps


Reg. NEXRAD Animation


National Fire Danger: Day 1 & 2 Map

Current NWS Watch/Warnings

SPC Convective Day 1 Outlook


Day 2 Outlook

(Click images to enlarge|Page will refresh every 5 minutes)
UK Ag. Weather Center Desktop Severe Weather Service[HERE]
Harrison County, KY Hazardous Weather Outlook Webcast
(9 AM to 9 PM Mon-Fri)
[Fast]
[Dial-up]


UKAWC 1st Detectors/1st Responders Precision Weather Forecast For HARRISON County, Kentucky
(based on the NWS County Digital Forecast)

ISSUED AT 23:00 UTC ON SUNDAY NOV 18 2018
DAY SUNDAY MONDAY
EDT 3HR 8P 9P 10P 11P MIDN 1A 2A 3A 4A 5A 6A 7A 8A 9A 10A 11A NOON 1P 2P 3P 4P 5P 6P 7P
MAX/MIN 52° -- -- -- -- -- -- -- -- -- -- -- 43° -- -- -- -- -- -- -- -- -- -- 45°
TEMP 47° 47° 45° 45° 45° 45° 43° 43° 43° 43° 43° 43° 43° 43° 43° 43° 45° 45° 45° 45° 45° 45° 45° 45°
SKY COVER 96% 96% 96% 97% 95% 93% 91% 93% 95% 98% 100% 100% 100% 100% 100% 100% 100% 100% 100% 100% 100% 100% 99% 97%
Clouds
DEW PT 43° 43° 41° 41° 40° 40° 40° 40° 40° 40° 40° 40° 40° 40° 40° 40° 41° 41° 43° 43° 43° 43° 41° 40°
RH 82% 86% 85% 85% 85% 85% 88% 88% 88% 85% 89% 93% 89% 92% 88% 89% 89% 89% 89% 89% 89% 89% 85% 85%
POP 12HR 21% -- -- -- -- -- -- -- -- -- -- -- 45% -- -- -- -- -- -- -- -- -- -- --
RAIN/SNOW (liq.equ) 0.00in -- -- -- -- -- 0.00in -- -- -- -- -- 0.04in -- -- -- -- -- 0.08in -- -- -- -- --
SNOWFALL 0in -- -- -- -- -- 0in -- -- -- -- -- 0in -- -- -- -- -- 0in -- -- -- -- --
WIND SPEED(MPH) 5 5 5 2 2 2 2 2 1 0 1 1 0 1 1 0 1 1 2 2 2 2 5 6
WIND Gust(MPH) 5 5 5 2 2 2 2 2 1 0 1 1 0 1 1 0 1 6 7 7 7 7 7 8
WIND DIR W NW NW NW NW N N N N NE NE NE E NE E SE E S SW SW W W NW NW
DEW -- -- -- -- -- -- -- -- -- -- -- -- -- -- -- -- -- -- -- -- -- -- -- --
HeatIndex 47 47 45 45 43 43 42 42 43 43 43 43 43 43 43 43 45 45 45 45 45 45 45 41
Snow Showers -- -- -- -- -- -- -- -- -- -- -- -- -- -- -- -- -- -- -- -- -- -- -- --
Rain -- -- -- -- -- -- -- Slight Chance Slight Chance Chance Chance Chance Chance Likely Likely Likely Likely Likely Likely Likely Likely Likely Chance Chance
Rain Showers -- -- -- -- -- -- -- -- -- -- -- -- -- -- -- -- -- -- -- -- -- -- -- --
WIND CHILL -- -- 43° -- -- -- -- -- -- -- -- -- -- -- -- -- -- -- -- -- -- -- 43° 42°
SPRAY COND
DRY COND
LIVESTOCK COLDSTRESS



DAY TUESDAY WEDNESDAY THURSDAY FRIDAY SATURDAY SUNDAY
EDT 6HR 8P 9P 10P 11P MIDN 1A 2A 3A 4A 5A 6A 7A 8A 11A 2P 5P 8P 11P 2A 5A 8A 11A 2P 5P 8P 2A 8A 2P 8P 2A 8A 2P 8P 2A 8A 2P 8P 2A 8A 2P 8P
MAX/MIN -- -- -- -- -- -- -- -- -- -- -- -- 34° -- -- 40° -- -- -- -- 27° -- -- 45° -- -- 29° 47° -- -- 29° 52° -- -- 40° 52° -- -- 41° 54° --
TEMP 43° 43° 43° 41° 40° 40° 40° 38° 38° 36° 36° 34° 34° 38° 40° 40° 36° 32° 31° 29° 27° 36° 43° 45° 40° 32° 31° 45° 38° 34° 31° 50° 45° 41° 40° 50° 49° 45° 41° 52° 50°
SKY COVER 96% 96% 95% 95% 95% 95% 95% 93% 90% 89% 89% 90% 90% 85% 84% 67% 47% 26% 32% 19% 27% 27% 15% 18% 10% 13% 24% 12% 10% 2% 3% 28% 81% 95% 90% 82% 88% 86% 80% 83% 88%
Clouds
DEW PT 41° 40° 40° 40° 40° 38° 38° 38° 38° 36° 36° 34° 34° 34° 32° 31° 31° 29° 27° 27° 25° 27° 29° 31° 31° 31° 29° 31° 29° 25° 27° 38° 38° 38° 40° 47° 45° 43° 41° 45° 43°
RH 92% 92% 92% 92% 95% 92% 95% 95% 99% 99% 100% 100% 99% 85% 75% 73% 78% 85% 84% 88% 91% 72% 57% 60% 72% 91% 91% 57% 69% 72% 81% 60% 76% 88% 95% 85% 85% 92% 100% 74% 76%
POP 12HR 74% -- -- -- -- -- -- -- -- -- -- -- 43% -- -- -- 12% -- -- -- 1% -- -- -- 1% -- 2% -- 2% -- 3% -- 23% -- 77% -- 58% -- 29% -- 26%
RAIN/SNOW (liq.equ) 0.05in -- -- -- -- -- 0.01in -- -- -- -- -- 0.00in -- 0.00in -- 0.00in -- 0.00in -- 0.00in -- 0.00in -- 0.00in -- -- -- -- -- -- -- -- -- -- -- -- -- -- -- --
SNOWFALL 0in -- -- -- -- -- 0in -- -- -- -- -- 0in -- 0in -- 0in -- 0in -- 0in -- 0in -- 0in -- -- -- -- -- -- -- -- -- -- -- -- -- -- -- --
WIND SPEED(MPH) 6 6 7 7 7 7 7 7 6 6 6 6 6 7 7 7 5 2 6 6 7 7 7 7 6 2 6 6 7 6 6 7 8 7 7 7 7 5 6 7 7
WIND DIR NW NW NW NW W W W W W W W W W W NW W NW W W W SW SW W W W N E E E SE SE S SE S SE S SE S S SW S
HeatIndex 40 39 38 37 36 36 35 34 33 32 31 29 29 32 35 35 33 29 26 23 20 29 39 40 35 29 25 41 34 28 26 50 40 36 35 50 49 45 38 52 50
Snow Showers -- -- -- -- -- -- -- -- -- -- -- -- Chance -- -- -- -- -- -- -- -- -- -- -- -- -- -- -- -- -- -- -- -- -- -- -- -- -- -- -- --
Rain -- -- -- -- -- -- -- -- -- -- -- -- -- -- -- -- -- -- -- -- -- -- -- -- -- -- -- -- -- -- -- -- -- -- -- -- -- -- -- -- --
Rain Showers Chance Chance Chance Chance Chance Chance Slight Chance Slight Chance Slight Chance Slight Chance Slight Chance Slight Chance Chance Chance Chance Chance -- -- -- -- -- -- -- -- -- -- -- -- -- -- -- Slight Chance Chance Definite Likely Chance Chance Chance Slight Chance Chance Chance
WIND CHILL 39° 39° 39° 36° 35° 35° 35° 33° 34° 31° 31° 29° 29° 33° 35° 35° 32° -- 25° 23° 20° 30° 39° 41° 36° -- 25° 42° 33° 29° 25° -- 41° 36° 35° -- -- 43° 37° -- --
SPRAY COND
DRY COND
LIVESTOCK COLDSTRESS

Click on individual weather variable above in left-hand column (ie., TEMP, RH, QPF 12HR) to view state forecast maps






NWS 48 Hr. Forecast Maps,

Regional Hourly Observations For HARRISON County, Kentucky
Issued at 600 PM EST SUN NOV 18 2018
NORTHEAST KENTUCKY
  
CITY           SKY/WX    TMP DP  RH WIND       PRES   REMARKS
LEXINGTON      FAIR      53  43  68 SW6       30.12F                  
COVINGTON      CLOUDY    48  40  73 N8        30.12S                  
FRANKFORT      CLOUDY    53  45  74 CALM      30.11R                  


Current NOWCAST not available:
Nowcasts are not issued routinely during fair weather. Only when
precipitation or other significant weather is occuring in this county will these
forecasts be issued. Currently, there is no short term forecast in effect.


Fire Weather Forecast For HARRISON County, KY
Provided by the National Weather Service:

Issued at: Sun Nov 18 18:05:01 EST 2018


                      Tonight      Mon          Mon Night    Tue          

CLOUD COVER           MCldy        Cloudy       MCldy        MCldy        
PRECIP TYPE           Rain         Rain         Showers      Sprinkles    
CHANCE PRECIP (%)     40           60           40           0            
TEMP (24H TREND)      42 (+8)      50 (-5)      34           41           
RH % (24H TREND)      94 (-5)      80 (+9)      100          69           
20FTWND-VAL/AM(MPH)                Lgt/Var                   W  5         
20FTWND-RDG/PM(MPH)   Lgt/Var      Lgt/Var      W  5         W  5         
PRECIP AMOUNT         0.02         0.13         0.01         0.00         
MIXING HGT(FT-AGL/MSL)             1120                      3125         
TRANSPORT WND (MPH)                SW 18                     NW 13        
VENT RATE (KT-FT)                  20160                     36122        
DISPERSION                         Poor                      Marginal     
DSI                   STBL         STBL         SLGT UNSTBL  SLGT UNSTBL  
LAL                   1            1            1            1            
HAINES INDEX          3            2            2            2            
ADI EARLY             5 VERY POOR  19 GEN POOR  8 POOR       36 FAIR      
ADI LATE              17 GEN POOR  22 FAIR      13 GEN POOR  34 FAIR      
MAX LVORI EARLY       6            5            7            6            
MAX LVORI LATE        6            5            8            3            

REMARKS...ADI IS ATMOSPHERIC DISPERSION INDEX BY LAVDAS.        
LVORI IS LOW VISIBILITY OCCURRENCE RISK INDEX.

.WEDNESDAY...Mostly clear. Lows in the upper 20s. Highs in the
mid 40s. West winds around 5 mph. 
.THURSDAY...Mostly clear. Lows around 30. Highs in the upper 40s.
East winds up to 5 mph. 
.FRIDAY...Mostly clear. Lows in the lower 30s. Highs in the lower
50s. South winds 5 to 10 mph. 
.SATURDAY...Rain showers likely. Lows in the lower 40s. Highs in
the lower 50s. South winds 5 to 10 mph. 
.SUNDAY...Mostly cloudy with a 50 percent chance of rain showers.
Lows in the lower 40s. Highs in the lower 50s. Southwest winds
around 5 mph. 

SPC's Fire Weather Web Tool (Excellent!), SPC's Fire Weather Outlooks, NWS Fire Weather WEB, Fire Danger Class Map,
Keetch-Byram Drought Index, ROMAN Web, Haines Index ,
WFAS's 10-hr Dead Fuel Moist., WFAS's 100-hr Dead Fuel Moist., Probablity of Ignition, Visual blackness Map, Palmer Drought Index, HPC's Rainfall Forecast Maps


Hazardous Weather Outlook For HARRISON County, Kentucky
314 PM EST Sun Nov 18 2018 /214 PM CST Sun Nov 18 2018/

 DAY ONE  Tonight.

No hazardous weather is expected at this time.

 DAYS TWO THROUGH SEVEN  Monday through Saturday.

No hazardous weather is expected at this time.

 SPOTTER INFORMATION STATEMENT  

Spotter activation is not anticipated at this time.

Latest HARRISON County, Kentucky Watches, Warnings and Advisories.
Additional Drought Info.: UKAWC Drought Page, Kentucky Drought Watch


7-Day Forecast For HARRISON County, KY

TONIGHT
Cloudy with a 40 percent chance of rain. Lows in the lower 40s. North winds up to 5 mph.

MONDAY
Rain likely. Highs in the upper 40s. Southwest winds up to 5 mph. Chance of rain 70 percent.

MONDAY NIGHT
Cloudy with a 50 percent chance of rain showers. Lows in the mid 30s. West winds 5 to 10 mph.

TUESDAY
Mostly cloudy. Chance of sprinkles and flurries. Highs around 40. West winds 5 to 10 mph.

TUESDAY NIGHT
Partly cloudy. Lows in the upper 20s. West winds around 5 mph.

WEDNESDAY
Mostly sunny. Highs in the mid 40s.

WEDNESDAY NIGHT
Mostly clear. Lows around 30.

THANKSGIVING DAY
Mostly sunny. Highs in the upper 40s.

THURSDAY NIGHT
Clear. Lows around 30.

FRIDAY
Mostly sunny with a 20 percent chance of rain showers. Highs in the lower 50s.

FRIDAY NIGHT
Showers. Lows around 40. Chance of showers 80 percent.

SATURDAY
Showers likely. Highs in the lower 50s. Chance of showers 60 percent.

SATURDAY NIGHT
Mostly cloudy with a 50 percent chance of showers. Lows in the lower 40s.

SUNDAY
Mostly cloudy with a 30 percent chance of showers. Highs in the mid 50s.

Ag Weather Center, Department of Biosystems & Agricultural Engineering, University of Kentucky